| time (UTC) | temp F | wind direction | speed MPH | gust MPH | rain 1hr in | rain 24hr in | rain mn in | humidity % | barometer mb |
| 20260831141405 | 83 | 118 | 2.0 | 5.0 | 0.00 | 0.00 | 0.00 | 73 | 1021.5 |
| 20260831140903 | 83 | 230 | 2.0 | 6.0 | 0.00 | 0.00 | 0.00 | 71 | 1021.5 |
| 20260831140403 | 82 | 166 | 3.0 | 6.0 | 0.00 | 0.00 | 0.00 | 72 | 1021.5 |
| 20260831135403 | 82 | 149 | 3.0 | 6.0 | 0.00 | 0.00 | 0.00 | 76 | 1021.2 |
| 20260831134903 | 81 | 112 | 2.0 | 5.0 | 0.00 | 0.00 | 0.00 | 76 | 1021.2 |
| 20260831134404 | 80 | 149 | 1.0 | 3.0 | 0.00 | 0.00 | 0.00 | 79 | 1021.2 |
| 20260831133903 | 79 | 118 | 2.0 | 3.0 | 0.00 | 0.00 | 0.00 | 81 | 1021.2 |
| 20260831133403 | 78 | 156 | 1.0 | 3.0 | 0.00 | 0.00 | 0.00 | 84 | 1021.2 |
| 20260831132905 | 77 | 124 | 1.0 | 3.0 | 0.00 | 0.00 | 0.00 | 87 | 1021.2 |
| 20260831132403 | 76 | 167 | 1.0 | 3.0 | 0.00 | 0.00 | 0.00 | 89 | 1021.2 |
| 20260831131904 | 75 | 218 | 1.0 | 5.0 | 0.00 | 0.00 | 0.00 | 91 | 1021.2 |
| 20260831131405 | 74 | 202 | 1.0 | 3.0 | 0.00 | 0.00 | 0.00 | 94 | 1021.1 |
| 20260831130903 | 74 | 319 | 0.0 | 0.0 | 0.00 | 0.00 | 0.00 | 95 | 1021.1 |
| 20260831130403 | 73 | 319 | 0.0 | 0.0 | 0.00 | 0.00 | 0.00 | 95 | 1021.1 |
| 20260831125904 | 73 | 319 | 0.0 | 0.0 | 0.00 | 0.00 | 0.00 | 95 | 1021.1 |
| 20260831125403 | 72 | 319 | 0.0 | 0.0 | 0.00 | 0.00 | 0.00 | 95 | 1021.1 |
| 20260831124904 | 72 | 319 | 0.0 | 0.0 | 0.00 | 0.00 | 0.00 | 95 | 1021.1 |
| 20260831123404 | 71 | 319 | 0.0 | 0.0 | 0.00 | 0.00 | 0.00 | 95 | 1021.0 |
| 20260831122905 | 70 | 319 | 0.0 | 0.0 | 0.00 | 0.00 | 0.00 | 95 | 1020.9 |
| 20260831122404 | 70 | 319 | 0.0 | 0.0 | 0.00 | 0.00 | 0.00 | 95 | 1020.9 |
| 20260831120903 | 69 | 319 | 0.0 | 0.0 | 0.00 | 0.00 | 0.00 | 94 | 1020.9 |
| 20260831120403 | 69 | 319 | 0.0 | 0.0 | 0.00 | 0.00 | 0.00 | 94 | 1020.9 |
| 20260831115905 | 69 | 319 | 0.0 | 0.0 | 0.00 | 0.00 | 0.00 | 94 | 1020.8 |
| 20260831115403 | 69 | 319 | 0.0 | 0.0 | 0.00 | 0.00 | 0.00 | 94 | 1020.8 |
| 20260831114903 | 69 | 319 | 0.0 | 0.0 | 0.00 | 0.00 | 0.00 | 94 | 1020.8 |
| 20260831114404 | 69 | 319 | 0.0 | 0.0 | 0.00 | 0.00 | 0.00 | 94 | 1020.7 |
| 20260831113904 | 69 | 319 | 0.0 | 0.0 | 0.00 | 0.00 | 0.00 | 94 | 1020.7 |
| 20260831113404 | 69 | 319 | 0.0 | 0.0 | 0.00 | 0.00 | 0.00 | 94 | 1020.7 |
| 20260831112404 | 69 | 319 | 0.0 | 0.0 | 0.00 | 0.00 | 0.00 | 94 | 1020.5 |
| 20260831111903 | 69 | 319 | 0.0 | 0.0 | 0.00 | 0.00 | 0.00 | 94 | 1020.5 |
| 20260831111404 | 69 | 319 | 0.0 | 0.0 | 0.00 | 0.00 | 0.00 | 93 | 1020.4 |
| 20260831110404 | 69 | 319 | 0.0 | 0.0 | 0.00 | 0.00 | 0.00 | 93 | 1020.4 |
| 20260831105905 | 69 | 319 | 0.0 | 1.0 | 0.00 | 0.00 | 0.00 | 93 | 1020.0 |
| 20260831105404 | 69 | 319 | 0.0 | 1.0 | 0.00 | 0.00 | 0.00 | 94 | 1020.0 |
| 20260831104405 | 69 | 319 | 0.0 | 1.0 | 0.00 | 0.00 | 0.00 | 94 | 1020.0 |
| 20260831103903 | 69 | 319 | 1.0 | 2.0 | 0.00 | 0.00 | 0.00 | 94 | 1020.0 |
| 20260831103404 | 69 | 319 | 0.0 | 1.0 | 0.00 | 0.00 | 0.00 | 94 | 1020.0 |
| 20260831102905 | 69 | 319 | 1.0 | 2.0 | 0.00 | 0.00 | 0.00 | 94 | 1019.9 |
| 20260831102404 | 69 | 319 | 1.0 | 2.0 | 0.00 | 0.00 | 0.00 | 94 | 1019.9 |
| 20260831101904 | 69 | 319 | 1.0 | 2.0 | 0.00 | 0.00 | 0.00 | 94 | 1019.7 |
| 20260831101405 | 69 | 319 | 0.0 | 1.0 | 0.00 | 2.00 | 0.00 | 94 | 1019.7 |
| 20260831100404 | 69 | 319 | 0.0 | 2.0 | 0.00 | 2.00 | 0.00 | 94 | 1019.7 |
| 20260831095904 | 69 | 319 | 0.0 | 1.0 | 0.00 | 2.00 | 0.00 | 93 | 1019.6 |
| 20260831095403 | 69 | 319 | 0.0 | 0.0 | 0.00 | 2.00 | 0.00 | 93 | 1019.6 |
| 20260831094903 | 70 | 319 | 0.0 | 0.0 | 0.00 | 2.00 | 0.00 | 93 | 1019.6 |
| 20260831094405 | 70 | 319 | 0.0 | 0.0 | 0.00 | 2.00 | 0.00 | 93 | 1019.5 |
| 20260831093903 | 70 | 319 | 0.0 | 0.0 | 0.00 | 2.00 | 0.00 | 93 | 1019.5 |
| 20260831093403 | 70 | 319 | 0.0 | 0.0 | 0.00 | 2.00 | 0.00 | 93 | 1019.5 |
| 20260831092905 | 70 | 319 | 0.0 | 0.0 | 0.00 | 2.00 | 0.00 | 93 | 1019.5 |
| 20260831092404 | 70 | 319 | 0.0 | 0.0 | 0.00 | 2.00 | 0.00 | 93 | 1019.5 |
| 20260831091903 | 70 | 319 | 0.0 | 0.0 | 0.00 | 2.00 | 0.00 | 93 | 1019.5 |
| 20260831091404 | 70 | 319 | 0.0 | 0.0 | 0.00 | 2.00 | 0.00 | 94 | 1019.5 |
| 20260831090904 | 70 | 319 | 0.0 | 0.0 | 0.00 | 2.00 | 0.00 | 93 | 1019.5 |
| 20260831090404 | 70 | 319 | 0.0 | 0.0 | 0.00 | 2.00 | 0.00 | 93 | 1019.5 |
| 20260831085905 | 70 | 319 | 0.0 | 0.0 | 0.00 | 2.00 | 0.00 | 93 | 1019.4 |
| 20260831085403 | 70 | 319 | 0.0 | 0.0 | 0.00 | 2.00 | 0.00 | 93 | 1019.4 |
| 20260831084904 | 70 | 319 | 0.0 | 0.0 | 0.00 | 2.00 | 0.00 | 93 | 1019.3 |
| 20260831083904 | 71 | 319 | 0.0 | 0.0 | 0.00 | 2.00 | 0.00 | 93 | 1019.4 |
| 20260831083404 | 71 | 319 | 0.0 | 0.0 | 0.00 | 2.00 | 0.00 | 93 | 1019.4 |
| 20260831082905 | 71 | 319 | 0.0 | 0.0 | 0.00 | 2.00 | 0.00 | 93 | 1019.3 |
| 20260831082404 | 71 | 319 | 0.0 | 0.0 | 0.00 | 2.00 | 0.00 | 93 | 1019.2 |
| 20260831081903 | 71 | 319 | 0.0 | 0.0 | 0.00 | 2.00 | 0.00 | 93 | 1019.2 |
| 20260831081403 | 71 | 319 | 0.0 | 0.0 | 0.00 | 2.00 | 0.00 | 93 | 1019.2 |
| 20260831080902 | 71 | 319 | 0.0 | 0.0 | 0.00 | 2.00 | 0.00 | 93 | 1019.1 |
| 20260831075904 | 71 | 319 | 0.0 | 0.0 | 0.00 | 2.00 | 0.00 | 93 | 1019.1 |
| 20260831075402 | 71 | 319 | 0.0 | 0.0 | 0.00 | 2.00 | 0.00 | 93 | 1019.1 |
| 20260831074902 | 71 | 319 | 0.0 | 0.0 | 0.00 | 2.00 | 0.00 | 93 | 1019.1 |
| 20260831074403 | 71 | 319 | 0.0 | 0.0 | 0.00 | 2.00 | 0.00 | 93 | 1019.2 |
| 20260831073902 | 71 | 319 | 0.0 | 0.0 | 0.00 | 2.00 | 0.00 | 93 | 1019.2 |
| 20260831073402 | 71 | 319 | 0.0 | 0.0 | 0.00 | 2.00 | 0.00 | 93 | 1019.2 |
| 20260831072904 | 71 | 319 | 0.0 | 0.0 | 0.00 | 2.00 | 0.00 | 93 | 1019.3 |
| 20260831071902 | 71 | 319 | 0.0 | 0.0 | 0.00 | 2.00 | 0.00 | 93 | 1019.3 |
| 20260831071404 | 71 | 319 | 0.0 | 0.0 | 0.00 | 2.00 | 0.00 | 93 | 1019.3 |
| 20260831070902 | 71 | 319 | 0.0 | 0.0 | 0.00 | 2.00 | 0.00 | 93 | 1019.3 |
| 20260831070402 | 71 | 319 | 0.0 | 0.0 | 0.00 | 2.00 | 0.00 | 93 | 1019.3 |
| 20260831065402 | 71 | 319 | 0.0 | 0.0 | 0.00 | 2.00 | 0.00 | 93 | 1019.3 |
| 20260831064903 | 71 | 319 | 0.0 | 0.0 | 0.00 | 2.00 | 0.00 | 93 | 1019.3 |
| 20260831063402 | 71 | 319 | 0.0 | 0.0 | 0.00 | 2.00 | 0.00 | 93 | 1019.3 |
| 20260831062904 | 71 | 319 | 0.0 | 0.0 | 0.00 | 2.00 | 0.00 | 93 | 1019.3 |
| 20260831062402 | 71 | 319 | 0.0 | 0.0 | 0.00 | 2.00 | 0.00 | 93 | 1019.3 |
| 20260831061902 | 71 | 319 | 0.0 | 0.0 | 0.00 | 2.00 | 0.00 | 93 | 1019.3 |
| 20260831061404 | 71 | 319 | 0.0 | 0.0 | 0.00 | 2.00 | 0.00 | 93 | 1019.4 |
| 20260831060902 | 71 | 319 | 0.0 | 0.0 | 0.00 | 2.00 | 0.00 | 93 | 1019.4 |
| 20260831060403 | 71 | 319 | 0.0 | 0.0 | 0.00 | 2.00 | 0.00 | 93 | 1019.4 |
| 20260831055903 | 71 | 319 | 0.0 | 0.0 | 0.00 | 2.00 | 0.00 | 92 | 1019.4 |
| 20260831055402 | 71 | 319 | 0.0 | 0.0 | 0.00 | 2.00 | 0.00 | 92 | 1019.5 |
| 20260831054903 | 72 | 319 | 0.0 | 1.0 | 0.00 | 2.00 | 0.00 | 92 | 1019.5 |
| 20260831054404 | 72 | 319 | 0.0 | 1.0 | 0.00 | 2.00 | 0.00 | 92 | 1019.6 |
| 20260831053902 | 72 | 319 | 0.0 | 0.0 | 0.00 | 2.00 | 0.00 | 92 | 1019.6 |
| 20260831053402 | 72 | 319 | 1.0 | 1.0 | 0.00 | 2.00 | 0.00 | 92 | 1019.6 |
| 20260831052402 | 72 | 319 | 1.0 | 1.0 | 0.00 | 2.00 | 0.00 | 92 | 1019.7 |
| 20260831051404 | 72 | 319 | 0.0 | 0.0 | 0.00 | 2.00 | 0.00 | 92 | 1019.4 |
| 20260831050902 | 72 | 319 | 1.0 | 1.0 | 0.00 | 2.00 | 0.00 | 92 | 1019.6 |
| 20260831045903 | 72 | 319 | 0.0 | 0.0 | 0.00 | 2.00 | 0.00 | 92 | 1019.6 |
| 20260831045404 | 72 | 319 | 0.0 | 0.0 | 0.00 | 2.00 | 0.00 | 92 | 1019.6 |
| 20260831044902 | 72 | 319 | 0.0 | 0.0 | 0.00 | 2.00 | 0.00 | 92 | 1019.6 |
| 20260831044402 | 72 | 319 | 0.0 | 0.0 | 0.00 | 2.00 | 0.00 | 92 | 1019.6 |
| 20260831043905 | 72 | 319 | 0.0 | 0.0 | 0.00 | 2.00 | 0.00 | 92 | 1019.6 |
| 20260831043403 | 72 | 319 | 0.0 | 0.0 | 0.00 | 2.00 | 0.00 | 92 | 1019.6 |
| 20260831042403 | 72 | 319 | 0.0 | 0.0 | 0.00 | 2.00 | 0.00 | 91 | 1019.6 |
| 20260831041902 | 72 | 319 | 0.0 | 0.0 | 0.00 | 2.00 | 0.00 | 91 | 1019.5 |
| 20260831041403 | 72 | 319 | 0.0 | 0.0 | 0.00 | 2.00 | 0.00 | 91 | 1019.7 |
| 20260831040903 | 72 | 319 | 0.0 | 0.0 | 0.00 | 2.00 | 0.00 | 91 | 1019.7 |
| 20260831040402 | 72 | 319 | 0.0 | 0.0 | 0.00 | 2.00 | 0.00 | 91 | 1019.7 |
| 20260831035902 | 73 | 319 | 0.0 | 0.0 | 0.00 | 2.00 | 0.00 | 91 | 1019.7 |
| 20260831035404 | 73 | 319 | 0.0 | 0.0 | 0.00 | 2.00 | 0.00 | 91 | 1019.8 |
| 20260831034902 | 73 | 319 | 0.0 | 1.0 | 0.00 | 2.00 | 0.00 | 91 | 1019.8 |
| 20260831034403 | 73 | 319 | 1.0 | 1.0 | 0.00 | 2.00 | 0.00 | 91 | 1019.6 |
| 20260831033904 | 73 | 319 | 0.0 | 0.0 | 0.00 | 2.00 | 0.00 | 91 | 1019.7 |
| 20260831033403 | 73 | 319 | 0.0 | 0.0 | 0.00 | 2.00 | 0.00 | 91 | 1019.7 |
| 20260831032902 | 73 | 319 | 0.0 | 0.0 | 0.00 | 2.00 | 0.00 | 91 | 1019.7 |
| 20260831032404 | 73 | 319 | 0.0 | 0.0 | 0.00 | 2.00 | 0.00 | 88 | 1019.7 |
| 20260831031903 | 73 | 319 | 0.0 | 0.0 | 0.00 | 2.00 | 0.00 | 88 | 1019.7 |
| 20260831031403 | 73 | 319 | 0.0 | 0.0 | 0.00 | 2.00 | 0.00 | 88 | 1019.7 |
| 20260831030903 | 73 | 319 | 0.0 | 0.0 | 0.00 | 2.00 | 0.00 | 88 | 1019.7 |
| 20260831030402 | 73 | 319 | 0.0 | 0.0 | 0.00 | 2.00 | 0.00 | 88 | 1019.7 |
| 20260831025903 | 73 | 319 | 0.0 | 0.0 | 0.00 | 2.00 | 0.00 | 88 | 1019.7 |
| 20260831025404 | 73 | 319 | 0.0 | 0.0 | 0.00 | 2.00 | 0.00 | 88 | 1019.7 |
| 20260831024903 | 73 | 319 | 0.0 | 1.0 | 0.00 | 2.00 | 0.00 | 88 | 1019.7 |
| 20260831024403 | 73 | 319 | 1.0 | 1.0 | 0.00 | 2.00 | 0.00 | 88 | 1019.7 |
| 20260831023903 | 73 | 319 | 0.0 | 0.0 | 0.00 | 2.00 | 0.00 | 88 | 1019.7 |
| 20260831023404 | 73 | 319 | 0.0 | 0.0 | 0.00 | 2.00 | 0.00 | 88 | 1019.5 |
| 20260831022902 | 73 | 319 | 0.0 | 0.0 | 0.00 | 2.00 | 0.00 | 88 | 1019.5 |
| 20260831021904 | 74 | 319 | 0.0 | 0.0 | 0.00 | 2.00 | 0.00 | 88 | 1019.5 |
| 20260831021403 | 74 | 319 | 1.0 | 1.0 | 0.00 | 2.00 | 0.00 | 88 | 1019.3 |
| 20260831020403 | 74 | 319 | 0.0 | 0.0 | 0.00 | 2.00 | 0.00 | 88 | 1019.3 |
| 20260831015903 | 74 | 319 | 0.0 | 0.0 | 0.00 | 2.00 | 0.00 | 88 | 1018.7 |
| 20260831015403 | 74 | 319 | 0.0 | 0.0 | 0.00 | 2.00 | 0.00 | 88 | 1018.7 |
| 20260831014902 | 74 | 319 | 0.0 | 0.0 | 0.00 | 2.00 | 0.00 | 88 | 1018.7 |
| 20260831014403 | 74 | 319 | 0.0 | 0.0 | 0.00 | 2.00 | 0.00 | 88 | 1018.7 |
| 20260831012904 | 74 | 319 | 0.0 | 0.0 | 0.00 | 2.00 | 0.00 | 88 | 1018.7 |
| 20260831012403 | 75 | 319 | 0.0 | 0.0 | 0.00 | 2.00 | 0.00 | 88 | 1018.7 |
| 20260831011902 | 75 | 319 | 0.0 | 0.0 | 0.00 | 2.00 | 0.00 | 88 | 1018.8 |
| 20260831011404 | 75 | 319 | 0.0 | 0.0 | 0.00 | 2.00 | 0.00 | 88 | 1018.8 |
| 20260831010903 | 75 | 319 | 0.0 | 0.0 | 0.00 | 2.00 | 0.00 | 86 | 1018.8 |
| 20260831010402 | 75 | 319 | 0.0 | 0.0 | 0.00 | 2.00 | 0.00 | 86 | 1018.8 |
| 20260831005903 | 75 | 319 | 0.0 | 0.0 | 0.00 | 2.00 | 0.00 | 86 | 1018.6 |
| 20260831005404 | 75 | 319 | 0.0 | 0.0 | 0.00 | 2.00 | 0.00 | 86 | 1018.6 |
| 20260831004902 | 75 | 319 | 0.0 | 0.0 | 0.00 | 2.00 | 0.00 | 86 | 1018.5 |
| 20260831004402 | 75 | 319 | 0.0 | 0.0 | 0.00 | 2.00 | 0.00 | 86 | 1018.5 |
| 20260831003904 | 76 | 319 | 0.0 | 0.0 | 0.00 | 2.00 | 0.00 | 86 | 1018.3 |
| 20260831002902 | 76 | 319 | 0.0 | 0.0 | 0.00 | 2.00 | 0.00 | 57 | 1018.4 |
| 20260831002404 | 76 | 319 | 0.0 | 0.0 | 0.00 | 2.00 | 0.00 | 57 | 1018.4 |
| 20260831001903 | 76 | 319 | 0.0 | 1.0 | 0.00 | 2.00 | 0.00 | 57 | 1018.4 |
| 20260831001402 | 76 | 319 | 1.0 | 1.0 | 0.00 | 2.00 | 0.00 | 57 | 1018.4 |
| 20260831000403 | 77 | 319 | 0.0 | 0.0 | 0.00 | 2.00 | 0.00 | 57 | 1018.4 |
| 20260830235903 | 82 | 319 | 0.0 | 0.0 | 0.00 | 2.00 | 0.00 | 57 | 1018.3 |
| 20260830235403 | 83 | 319 | 0.0 | 0.0 | 0.00 | 2.00 | 0.00 | 57 | 1018.3 |
| 20260830234904 | 83 | 319 | 0.0 | 0.0 | 0.00 | 2.00 | 0.00 | 57 | 1018.3 |
| 20260830234402 | 83 | 319 | 0.0 | 0.0 | 0.00 | 2.00 | 0.00 | 57 | 1018.3 |
| 20260830233903 | 83 | 319 | 0.0 | 0.0 | 0.00 | 2.00 | 0.00 | 57 | 1018.3 |
| 20260830233404 | 83 | 319 | 0.0 | 0.0 | 0.00 | 2.00 | 0.00 | 57 | 1018.3 |
| 20260830232902 | 83 | 319 | 0.0 | 0.0 | 0.00 | 2.00 | 0.00 | 57 | 1018.3 |
| 20260830232402 | 83 | 319 | 0.0 | 0.0 | 0.00 | 2.00 | 0.00 | 57 | 1018.3 |
| 20260830231904 | 83 | 319 | 0.0 | 0.0 | 0.00 | 2.00 | 0.00 | 57 | 1018.3 |
| 20260830231403 | 83 | 319 | 0.0 | 0.0 | 0.00 | 2.00 | 0.00 | 57 | 1018.4 |
| 20260830230403 | 83 | 319 | 0.0 | 0.0 | 0.00 | 2.00 | 0.00 | 57 | 1018.3 |
| 20260830225903 | 83 | 319 | 0.0 | 0.0 | 0.00 | 2.00 | 0.00 | 57 | 1018.2 |
| 20260830225403 | 83 | 319 | 0.0 | 0.0 | 0.00 | 2.00 | 0.00 | 57 | 1018.2 |
| 20260830224403 | 91 | 319 | 1.0 | 1.0 | 0.00 | 2.00 | 0.00 | 57 | 1018.4 |
| 20260830223903 | 91 | 319 | 2.0 | 2.0 | 0.00 | 2.00 | 0.00 | 57 | 1018.4 |
| 20260830223404 | 91 | 5 | 1.0 | 2.0 | 0.00 | 2.00 | 0.00 | 57 | 1018.4 |
| 20260830222902 | 91 | 5 | 2.0 | 2.0 | 0.00 | 2.00 | 0.00 | 57 | 1018.5 |
| 20260830222403 | 92 | 5 | 1.0 | 1.0 | 0.00 | 2.00 | 0.00 | 57 | 1018.3 |
| 20260830221904 | 92 | 265 | 1.0 | 1.0 | 0.00 | 2.00 | 0.00 | 57 | 1018.3 |
| 20260830221403 | 93 | 265 | 1.0 | 1.0 | 0.00 | 2.00 | 0.00 | 57 | 1018.2 |
| 20260830220903 | 93 | 265 | 0.0 | 0.0 | 0.00 | 2.00 | 0.00 | 57 | 1018.2 |
| 20260830220403 | 93 | 265 | 0.0 | 0.0 | 0.00 | 2.00 | 0.00 | 57 | 1018.2 |
| 20260830215903 | 93 | 265 | 0.0 | 0.0 | 0.00 | 2.00 | 0.00 | 61 | 1018.2 |
| 20260830215403 | 91 | 51 | 0.0 | 0.0 | 0.00 | 2.00 | 0.00 | 61 | 1018.2 |
| 20260830213902 | 91 | 51 | 0.0 | 0.0 | 0.00 | 2.00 | 0.00 | 61 | 1018.3 |
| 20260830213404 | 91 | 51 | 0.0 | 0.0 | 0.00 | 2.00 | 0.00 | 61 | 1018.3 |
| 20260830212903 | 90 | 51 | 0.0 | 0.0 | 0.00 | 2.00 | 0.00 | 61 | 1018.3 |
| 20260830211904 | 90 | 51 | 0.0 | 0.0 | 0.00 | 2.01 | 0.00 | 61 | 1018.4 |
| 20260830211403 | 91 | 51 | 0.0 | 0.0 | 0.00 | 2.04 | 0.00 | 61 | 1018.6 |
| 20260830210902 | 91 | 51 | 0.0 | 0.0 | 0.00 | 2.04 | 0.00 | 61 | 1018.6 |
| 20260830210405 | 91 | 51 | 0.0 | 0.0 | 0.00 | 2.04 | 0.00 | 61 | 1018.6 |
| 20260830205903 | 92 | 51 | 0.0 | 0.0 | 0.00 | 2.04 | 0.00 | 61 | 1018.5 |
| 20260830204903 | 92 | 51 | 0.0 | 0.0 | 0.00 | 2.04 | 0.00 | 61 | 1018.5 |
| 20260830203902 | 92 | 242 | 0.0 | 0.0 | 0.00 | 2.04 | 0.00 | 61 | 1018.7 |
| 20260830203402 | 92 | 201 | 0.0 | 0.0 | 0.00 | 2.04 | 0.00 | 61 | 1018.7 |
| 20260830202904 | 92 | 186 | 0.0 | 0.0 | 0.00 | 2.04 | 0.00 | 61 | 1018.9 |
| 20260830202403 | 92 | 214 | 0.0 | 0.0 | 0.00 | 2.04 | 0.00 | 61 | 1018.9 |
| 20260830201404 | 92 | 120 | 1.0 | 2.0 | 0.00 | 2.04 | 0.00 | 61 | 1019.0 |
| 20260830200903 | 91 | 249 | 0.0 | 2.0 | 0.00 | 2.04 | 0.00 | 61 | 1019.0 |
| 20260830200403 | 91 | 275 | 2.0 | 2.0 | 0.00 | 2.04 | 0.00 | 61 | 1019.1 |
| 20260830195904 | 91 | 275 | 2.0 | 2.0 | 0.00 | 2.04 | 0.00 | 61 | 1019.1 |
| 20260830195403 | 91 | 137 | 1.0 | 1.0 | 0.00 | 2.04 | 0.00 | 61 | 1019.1 |
| 20260830194904 | 91 | 52 | 1.0 | 1.0 | 0.00 | 2.04 | 0.00 | 61 | 1019.1 |
| 20260830194404 | 91 | 219 | 1.0 | 2.0 | 0.00 | 2.04 | 0.00 | 61 | 1019.4 |
| 20260830193903 | 91 | 194 | 2.0 | 2.0 | 0.00 | 2.04 | 0.00 | 61 | 1019.4 |
| 20260830193403 | 91 | 194 | 2.0 | 2.0 | 0.00 | 2.04 | 0.00 | 61 | 1019.4 |
| 20260830192905 | 91 | 256 | 1.0 | 2.0 | 0.00 | 2.04 | 0.00 | 61 | 1019.5 |
| 20260830192403 | 91 | 270 | 2.0 | 2.0 | 0.00 | 2.04 | 0.00 | 61 | 1019.7 |
| 20260830191404 | 90 | 198 | 2.0 | 3.0 | 0.00 | 2.04 | 0.00 | 61 | 1019.8 |
| 20260830190903 | 90 | 213 | 3.0 | 3.0 | 0.00 | 2.04 | 0.00 | 61 | 1019.8 |
| 20260830190403 | 90 | 218 | 3.0 | 7.0 | 0.00 | 2.04 | 0.00 | 61 | 1019.8 |
| 20260830185903 | 90 | 109 | 6.0 | 7.0 | 0.00 | 2.04 | 0.00 | 61 | 1019.9 |
| 20260830185404 | 91 | 163 | 3.0 | 3.0 | 0.00 | 2.04 | 0.00 | 61 | 1020.0 |
| 20260830184903 | 91 | 187 | 2.0 | 2.0 | 0.00 | 2.04 | 0.00 | 61 | 1020.0 |
| 20260830183903 | 89 | 126 | 3.0 | 3.0 | 0.00 | 2.04 | 0.00 | 61 | 1020.3 |
| 20260830183405 | 89 | 161 | 3.0 | 3.0 | 0.00 | 2.04 | 0.00 | 61 | 1020.3 |
| 20260830182403 | 88 | 248 | 2.0 | 2.0 | 0.00 | 2.04 | 0.00 | 61 | 1020.4 |
| 20260830181904 | 88 | 137 | 1.0 | 2.0 | 0.00 | 2.04 | 0.00 | 61 | 1020.7 |
| 20260830181403 | 88 | 277 | 1.0 | 2.0 | 0.00 | 2.04 | 0.00 | 61 | 1020.7 |
| 20260830180404 | 88 | 264 | 2.0 | 3.0 | 0.00 | 2.04 | 0.00 | 50 | 1020.7 |
| 20260830175904 | 87 | 0 | 0.0 | 0.0 | 0.00 | 2.04 | 0.00 | 59 | 1020.8 |
| 20260830174905 | 87 | 0 | 0.0 | 0.0 | 0.00 | 2.04 | 0.00 | 59 | 1020.8 |
| 20260830174403 | 87 | 0 | 0.0 | 0.0 | 0.00 | 2.04 | 0.00 | 59 | 1021.0 |
| 20260830173903 | 87 | 0 | 0.0 | 0.0 | 0.00 | 2.04 | 0.00 | 59 | 1021.0 |
| 20260830173404 | 87 | 0 | 0.0 | 0.0 | 0.00 | 2.04 | 0.00 | 59 | 1021.0 |
| 20260830172903 | 87 | 0 | 0.0 | 0.0 | 0.00 | 2.04 | 0.00 | 59 | 1021.3 |
| 20260830171904 | 87 | 325 | 3.0 | 6.0 | 0.00 | 2.04 | 0.00 | 59 | 1021.3 |
| 20260830171403 | 87 | 103 | 5.0 | 8.0 | 0.00 | 2.04 | 0.00 | 59 | 1021.7 |
| 20260830170903 | 87 | 255 | 2.0 | 5.0 | 0.00 | 2.04 | 0.00 | 61 | 1021.7 |
| 20260830170404 | 87 | 211 | 5.0 | 8.0 | 0.00 | 2.04 | 0.00 | 58 | 1021.7 |
| 20260830165903 | 87 | 57 | 3.0 | 6.0 | 0.00 | 2.04 | 0.00 | 62 | 1021.7 |
| 20260830165403 | 86 | 190 | 3.0 | 6.0 | 0.00 | 2.04 | 0.00 | 61 | 1021.7 |
| 20260830164904 | 86 | 231 | 2.0 | 5.0 | 0.00 | 2.04 | 0.00 | 63 | 1021.7 |
| 20260830164404 | 86 | 233 | 2.0 | 6.0 | 0.00 | 2.04 | 0.00 | 62 | 1021.8 |
| 20260830163903 | 86 | 148 | 3.0 | 6.0 | 0.00 | 2.04 | 0.00 | 62 | 1021.8 |
| 20260830163404 | 86 | 172 | 5.0 | 7.0 | 0.00 | 2.04 | 0.00 | 62 | 1021.8 |
| 20260830162904 | 86 | 108 | 5.0 | 8.0 | 0.00 | 2.04 | 0.00 | 60 | 1022.0 |
| 20260830162403 | 86 | 153 | 3.0 | 5.0 | 0.00 | 2.04 | 0.00 | 61 | 1022.0 |
| 20260830161904 | 86 | 246 | 4.0 | 6.0 | 0.00 | 2.04 | 0.00 | 61 | 1022.0 |
| 20260830161403 | 85 | 122 | 3.0 | 7.0 | 0.00 | 2.04 | 0.00 | 63 | 1022.0 |
| 20260830160903 | 85 | 0 | 1.0 | 3.0 | 0.00 | 2.04 | 0.00 | 67 | 1022.0 |
| 20260830160404 | 84 | 82 | 3.0 | 5.0 | 0.00 | 2.04 | 0.00 | 64 | 1022.0 |
| 20260830155903 | 84 | 168 | 4.0 | 7.0 | 0.00 | 2.04 | 0.00 | 66 | 1022.1 |
| 20260830155403 | 84 | 101 | 2.0 | 6.0 | 0.00 | 2.04 | 0.00 | 68 | 1022.1 |
| 20260830154905 | 84 | 220 | 2.0 | 7.0 | 0.00 | 2.04 | 0.00 | 67 | 1022.1 |
| 20260830154403 | 83 | 166 | 2.0 | 6.0 | 0.00 | 2.04 | 0.00 | 69 | 1022.2 |
| 20260830153904 | 82 | 143 | 2.0 | 3.0 | 0.00 | 2.04 | 0.00 | 71 | 1022.2 |
| 20260830152904 | 82 | 178 | 2.0 | 5.0 | 0.00 | 2.04 | 0.00 | 70 | 1022.3 |
| 20260830152403 | 82 | 103 | 4.0 | 7.0 | 0.00 | 2.04 | 0.00 | 70 | 1022.3 |
| 20260830151904 | 82 | 257 | 5.0 | 8.0 | 0.00 | 2.04 | 0.00 | 69 | 1022.2 |
| 20260830151403 | 82 | 196 | 3.0 | 6.0 | 0.00 | 2.04 | 0.00 | 69 | 1022.3 |
| 20260830150904 | 82 | 118 | 4.0 | 7.0 | 0.00 | 2.04 | 0.00 | 70 | 1022.3 |
| 20260830145903 | 82 | 179 | 4.0 | 9.0 | 0.00 | 2.04 | 0.00 | 71 | 1022.3 |
| 20260830145403 | 82 | 237 | 2.0 | 8.0 | 0.00 | 2.04 | 0.00 | 72 | 1022.3 |
| 20260830144404 | 81 | 159 | 2.0 | 6.0 | 0.00 | 2.04 | 0.00 | 74 | 1022.3 |
| 20260830143903 | 80 | 150 | 3.0 | 6.0 | 0.00 | 2.04 | 0.00 | 73 | 1022.3 |
| 20260830143403 | 80 | 182 | 3.0 | 9.0 | 0.00 | 2.04 | 0.00 | 73 | 1022.3 |
| 20260830142905 | 80 | 238 | 4.0 | 8.0 | 0.00 | 2.04 | 0.00 | 73 | 1022.2 |
| 20260830142403 | 81 | 231 | 5.0 | 8.0 | 0.00 | 2.04 | 0.00 | 72 | 1022.2 |
| 20260830141903 | 81 | 203 | 3.0 | 6.0 | 0.00 | 2.04 | 0.00 | 72 | 1022.2 |